Weather History for KCKM - January, 2014

Change the Weather History Date:

Thursday, January 23, 2014

  Actual Average (KMEM) Record (KMEM)
Temperature  
Mean Temperature 26 °F 41 °F  
Max Temperature 32 °F 50 °F 75 °F (1943)
Min Temperature 19 °F 33 °F 3 °F (1963)
Degree Days  
Heating Degree Days 40 24  
Month to date heating degree days 552  
Since 1 July heating degree days 1716  
Cooling Degree Days 0 0  
Month to date cooling degree days 0  
Year to date cooling degree days 0  
Moisture  
Dew Point 12 °F    
Average Humidity 55    
Maximum Humidity 86    
Minimum Humidity 36    
Precipitation  
Precipitation 0.00 in 0.12 in 1.84 in (1887)
Month to date precipitation 2.94  
Year to date precipitation 2.94  
Snow  
Snow 0.00 in 0.10 in 5.20 in (1956)
Month to date snowfall 1.4  
Since 1 July snowfall 1.6  
Snow Depth -    
Sea Level Pressure  
Sea Level Pressure 30.57 in    
Wind  
Wind Speed 10 mph (North)    
Max Wind Speed 26 mph    
Max Gust Speed 33 mph    
Visibility 10 miles    
Events      
T = Trace of Precipitation, MM = Missing Value Source: NWS Daily Summary

Daily Weather History Graph

Daily Weather History Graph

Search for Another Location

Airport or City:

Trip Planner

Search our weather history database for the weather conditions in past years. The results will help you decide how hot, cold, wet, or windy it might be!

Date:

Astronomy

Jan. 23, 2014 Rise Set
Actual Time 7:05 AM CST 5:23 PM CST
Civil Twilight 6:38 AM CST 5:50 PM CST
Nautical Twilight 6:07 AM CST 6:20 PM CST
Astronomical Twilight 5:37 AM CST 6:50 PM CST
Moon No Moon Rise 11:00 AM CST (1/23)
Length of Visible Light 11h 11m
Length of Day
10h 18m
Waning Gibbous, 55% of the Moon is Illuminated
Jan 23
Waning Gibbous
Jan 23
Last Quarter
Jan 30
New
Feb 6
First Quarter
Feb 14
Full

Hourly Weather History & Observations

Time (CST) Temp. Windchill Dew Point Humidity Pressure Visibility Wind Dir Wind Speed Gust Speed Precip Events Conditions
12:15 AM 32.0 °F - 24.8 °F 75% 30.28 in 10.0 mi Calm Calm - N/A   Clear
12:35 AM 32.0 °F 28.7 °F 24.8 °F 75% 30.29 in 10.0 mi NW 3.5 mph - N/A   Clear
12:55 AM 32.0 °F - 24.8 °F 75% 30.29 in 10.0 mi Calm Calm - N/A   Clear
1:15 AM 28.4 °F 19.7 °F 23.0 °F 80% 30.29 in 10.0 mi North 9.2 mph - N/A   Clear
1:35 AM 30.2 °F 26.7 °F 24.8 °F 80% 30.31 in 10.0 mi NNW 3.5 mph - N/A   Clear
1:55 AM 30.2 °F 24.3 °F 23.0 °F 75% 30.31 in 10.0 mi North 5.8 mph - N/A   Clear
2:15 AM 30.2 °F - 23.0 °F 75% 30.31 in 10.0 mi Calm Calm - N/A   Clear
2:35 AM 28.4 °F 23.3 °F 23.0 °F 80% 30.31 in 10.0 mi NNE 4.6 mph - N/A   Clear
2:55 AM 28.4 °F - 24.8 °F 86% 30.33 in 10.0 mi Calm Calm - N/A   Clear
3:15 AM 30.2 °F - 24.8 °F 80% 30.35 in 10.0 mi Calm Calm - N/A   Clear
3:35 AM 30.2 °F 26.7 °F 24.8 °F 80% 30.35 in 10.0 mi North 3.5 mph - N/A   Clear
3:55 AM 32.0 °F 24.8 °F 24.8 °F 75% 30.35 in 10.0 mi North 8.1 mph - N/A   Clear
4:15 AM 30.2 °F - 24.8 °F 80% 30.37 in 10.0 mi Calm Calm - N/A   Clear
4:35 AM 30.2 °F 22.6 °F 23.0 °F 75% 30.35 in 10.0 mi NNE 8.1 mph - N/A   Clear
4:55 AM 30.2 °F 25.4 °F 23.0 °F 75% 30.36 in 10.0 mi NNE 4.6 mph - N/A   Clear
5:15 AM 28.4 °F - 23.0 °F 80% 30.39 in 10.0 mi Calm Calm - N/A   Clear
5:35 AM 28.4 °F 19.7 °F 23.0 °F 80% 30.39 in 10.0 mi North 9.2 mph - N/A   Clear
5:55 AM 28.4 °F 22.2 °F 23.0 °F 80% 30.40 in 10.0 mi NNE 5.8 mph - N/A   Clear
6:15 AM 30.2 °F 22.6 °F 21.2 °F 69% 30.43 in 10.0 mi NNE 8.1 mph - N/A   Clear
6:35 AM 32.0 °F 23.6 °F 19.4 °F 60% 30.44 in 10.0 mi North 10.4 mph - N/A   Clear
6:55 AM 30.2 °F 19.8 °F 19.4 °F 64% 30.46 in 10.0 mi North 13.8 mph - N/A   Clear
7:15 AM 30.2 °F 18.9 °F 19.4 °F 64% 30.48 in 10.0 mi North 16.1 mph - N/A   Clear
7:35 AM 30.2 °F 21.3 °F 19.4 °F 64% 30.49 in 10.0 mi North 10.4 mph - N/A   Clear
7:55 AM 30.2 °F 19.8 °F 19.4 °F 64% 30.51 in - North 13.8 mph 19.6 mph N/A   Unknown
8:15 AM 32.0 °F 20.1 °F 17.6 °F 55% 30.51 in 10.0 mi North 19.6 mph - N/A   Unknown
8:35 AM 30.2 °F 19.3 °F 17.6 °F 60% 30.53 in 10.0 mi North 15.0 mph - N/A   Clear
8:55 AM 32.0 °F 18.9 °F 15.8 °F 51% 30.55 in 10.0 mi North 24.2 mph 29.9 mph N/A   Clear
9:15 AM 32.0 °F 19.5 °F 17.6 °F 55% 30.56 in 10.0 mi North 21.9 mph 31.1 mph N/A   Clear
9:35 AM 30.2 °F 16.2 °F 17.6 °F 60% 30.58 in 10.0 mi North 25.3 mph 32.2 mph N/A   Clear
9:55 AM 28.4 °F 15.8 °F 15.8 °F 59% 30.59 in 10.0 mi NNE 18.4 mph 28.8 mph N/A   Unknown
10:15 AM 28.4 °F 15.1 °F 15.8 °F 59% 30.61 in 10.0 mi North 20.7 mph 27.6 mph N/A   Unknown
10:35 AM 28.4 °F 14.4 °F 14.0 °F 55% 30.62 in 10.0 mi North 23.0 mph 31.1 mph N/A   Unknown
10:55 AM 28.4 °F 16.2 °F 14.0 °F 55% 30.63 in 10.0 mi North 17.3 mph 26.5 mph N/A   Unknown
11:15 AM 26.6 °F 12.0 °F 10.4 °F 51% 30.63 in 10.0 mi North 23.0 mph 29.9 mph N/A   Unknown
11:35 AM 26.6 °F 12.7 °F 10.4 °F 51% 30.63 in 10.0 mi North 20.7 mph 29.9 mph N/A   Unknown
11:55 AM 24.8 °F 8.7 °F 10.4 °F 54% 30.63 in 10.0 mi North 26.5 mph 32.2 mph N/A   Unknown
12:15 PM 24.8 °F 10.0 °F 6.8 °F 46% 30.63 in - North 21.9 mph 28.8 mph N/A   Unknown
12:35 PM 24.8 °F 9.6 °F 6.8 °F 46% 30.63 in - North 23.0 mph 33.4 mph N/A   Unknown
12:55 PM 24.8 °F 9.6 °F 6.8 °F 46% 30.63 in - North 23.0 mph 31.1 mph N/A   Unknown
1:15 PM 24.8 °F 10.0 °F 5.0 °F 43% 30.63 in - North 21.9 mph 32.2 mph N/A   Unknown
1:35 PM 24.8 °F 9.6 °F 5.0 °F 43% 30.63 in 10.0 mi North 23.0 mph 28.8 mph N/A   Unknown
1:55 PM 24.8 °F 9.6 °F 5.0 °F 43% 30.63 in 10.0 mi North 23.0 mph 32.2 mph N/A   Unknown
2:15 PM 24.8 °F 10.0 °F 5.0 °F 43% 30.63 in - North 21.9 mph 33.4 mph N/A   Unknown
2:35 PM 24.8 °F 9.6 °F 5.0 °F 43% 30.64 in - North 23.0 mph 29.9 mph N/A   Unknown
2:55 PM 24.8 °F 9.3 °F 1.4 °F 36% 30.64 in - North 24.2 mph 28.8 mph N/A   Clear
3:15 PM 24.8 °F 12.4 °F 1.4 °F 36% 30.64 in 10.0 mi North 15.0 mph 26.5 mph N/A   Clear
3:35 PM 24.8 °F 9.0 °F 3.2 °F 40% 30.65 in 10.0 mi North 25.3 mph 29.9 mph N/A   Clear
3:55 PM 24.8 °F 9.6 °F 1.4 °F 36% 30.66 in - North 23.0 mph 29.9 mph N/A   Unknown
4:15 PM 23.0 °F 7.2 °F 1.4 °F 39% 30.67 in 10.0 mi North 23.0 mph 28.8 mph N/A   Unknown
4:35 PM 23.0 °F 7.6 °F 1.4 °F 39% 30.67 in 10.0 mi North 21.9 mph 26.5 mph N/A   Unknown
4:55 PM 23.0 °F 7.6 °F 1.4 °F 39% 30.68 in - North 21.9 mph 27.6 mph N/A   Unknown
5:15 PM 23.0 °F 7.6 °F 1.4 °F 39% 30.69 in - North 21.9 mph 27.6 mph N/A   Overcast
5:35 PM 23.0 °F 7.6 °F 1.4 °F 39% 30.70 in 10.0 mi North 21.9 mph 26.5 mph N/A   Overcast
5:55 PM 23.0 °F 8.3 °F 1.4 °F 39% 30.70 in 10.0 mi North 19.6 mph 24.2 mph N/A   Overcast
6:15 PM 23.0 °F 9.2 °F 1.4 °F 39% 30.70 in 10.0 mi North 17.3 mph 23.0 mph N/A   Overcast
6:35 PM 23.0 °F 8.7 °F 1.4 °F 39% 30.72 in 10.0 mi North 18.4 mph 24.2 mph N/A   Overcast
6:55 PM 23.0 °F 9.2 °F 1.4 °F 39% 30.73 in 10.0 mi North 17.3 mph 23.0 mph N/A   Mostly Cloudy
7:15 PM 23.0 °F 10.1 °F 1.4 °F 39% 30.74 in 10.0 mi North 15.0 mph - N/A   Mostly Cloudy
7:35 PM 23.0 °F 9.6 °F -0.4 °F 36% 30.74 in 10.0 mi North 16.1 mph 23.0 mph N/A   Mostly Cloudy
7:55 PM 23.0 °F 10.1 °F 1.4 °F 39% 30.75 in 10.0 mi North 15.0 mph 19.6 mph N/A   Mostly Cloudy
8:35 PM 23.0 °F 10.6 °F 1.4 °F 39% 30.76 in 10.0 mi North 13.8 mph - N/A   Scattered Clouds
8:55 PM 23.0 °F 11.7 °F 1.4 °F 39% 30.77 in 10.0 mi NNE 11.5 mph - N/A   Partly Cloudy
9:15 PM 23.0 °F 11.7 °F 1.4 °F 39% 30.78 in 10.0 mi NNE 11.5 mph 18.4 mph N/A   Clear
9:55 PM 21.2 °F 10.1 °F 1.4 °F 42% 30.78 in 10.0 mi North 10.4 mph - N/A   Clear
10:15 PM 21.2 °F 10.9 °F 1.4 °F 42% 30.79 in 10.0 mi NNE 9.2 mph - N/A   Clear
10:35 PM 21.2 °F 11.7 °F 1.4 °F 42% 30.79 in 10.0 mi North 8.1 mph - N/A   Clear
10:55 PM 21.2 °F 10.9 °F 1.4 °F 42% 30.79 in 10.0 mi North 9.2 mph - N/A   Clear
11:15 PM 21.2 °F 13.6 °F 1.4 °F 42% 30.79 in 10.0 mi North 5.8 mph - N/A   Clear
11:35 PM 19.4 °F 8.6 °F 1.4 °F 46% 30.79 in 10.0 mi North 9.2 mph - N/A   Clear
11:55 PM 19.4 °F 12.8 °F 3.2 °F 49% 30.79 in 10.0 mi North 4.6 mph - N/A   Clear